Regional Weather Roundup
Issued by NWS Wakefield, VA

Home | Current Version | Previous Version | Text Only | Print | Product List | Glossary Off
Versions: 1 2 3 4 5 6 7 8 9 10 11 12 13 14 15 16 17 18 19 20 21 22 23 24 25 26 27 28 29 30 31 32 33 34 35 36 37 38 39 40 41 42 43 44 45 46 47 48 49 50

000
ASUS41 KAKQ 291715
RWRAKQ

REGIONAL WEATHER ROUNDUP
NATIONAL WEATHER SERVICE WAKEFIELD VA
100 PM EDT SAT APR 29 2017

Note: "fair" indicates few or no clouds below 12,000 feet with no
significant weather and/or obstructions to visibility. * = Denotes
station may not report precipitation (e.g., rain,snow,etc.),
thunder or fog.

VAZ042-051-052>054-056-291800-
NORTHERN VIRGINIA

CITY           SKY/WX    TMP DP  RH WIND       PRES   REMARKS
WASH NATIONAL  PTSUNNY   86  68  54 S15       30.05F
DULLES         CLOUDY    86  63  45 S10       30.06S
FORT BELVOIR   SUNNY     85  65  51 S12       30.06F
QUANTICO       SUNNY     78  71  79 S6        30.07F
FREDERICKSBRG* SUNNY     87  70  57 S9        30.07F
STAFFORD*      MOSUNNY   85  69  57 S6        30.12F
WARRENTON      SUNNY     88  64  44 S9        30.08S
CULPEPER*      MOSUNNY   87  68  53 SW9       30.09S
MANASSAS*        N/A     87  66  49 SW9G16    30.07F
LEESBURG*      MOSUNNY   88  64  45 SW9       30.07F
WINCHESTER     CLOUDY    79  64  61 SW12      30.08S
FRONT ROYAL*   CLOUDY    82  63  51 SW9       30.07S
LURAY*         CLOUDY    84  64  51 SW6       30.11S
$$

VAZ048-049-060>072-079>083-291800-
CENTRAL AND SOUTH CENTRAL VIRGINIA

CITY           SKY/WX    TMP DP  RH WIND       PRES   REMARKS
RICHMOND       PTSUNNY   85  73  67 SW13      30.11F
CHESTERFIELD*  FAIR     N/A N/A N/A SW8       30.13F
PETERSBURG*    SUNNY     84  70  61 SW9G17    30.13F
HANOVER        SUNNY     86  70  58 SW12      30.12F
TAPPAHANNOCK*  MOSUNNY   86  67  52 SW13      30.10F
QUINTON*       FAIR      84  74  70 SW5       30.11F
CHARLOTTSVILLE CLOUDY    87  69  54 S8        30.10F
GORDONSVILLE*  CLOUDY    86  68  53 SW9G16    30.09F
ORANGE*        CLOUDY    86  68  54 W12G17    30.10S
LOUISA*        SUNNY     90  72  55 SW6       30.10F HX  96
BUMPASS*       FAIR      85  72  63 SW7       30.10F
FARMVILLE*     MOSUNNY   85  72  65 SW8       30.12F
CREWE*         FAIR      84  75  73 S5        30.14F
FORT PICKETT*  NOT AVBL
CHASE CITY*    CLOUDY    82  74  77 S6        30.17F
CLARKSVILLE*   PTSUNNY   81  73  78 SW6       30.17F
SOUTH HILL*    CLOUDY    81  74  77 SW9       30.22F
LAWRENCEVILLE* PTSUNNY   83  73  71 SW10      30.15F
EMPORIA*       CLOUDY    82  72  69 SW7       30.17F
$$

VAZ088>098-291800-
SOUTHEAST VIRGINIA

CITY           SKY/WX    TMP DP  RH WIND       PRES   REMARKS
NORFOLK        CLOUDY    86  72  62 W12       30.12F
VIRGINIA BEACH NOT AVBL
NORFOLK NAVAL  NOT AVBL
WEST POINT*    MOSUNNY   84  71  63 SW10      30.12F
SALUDA*        FAIR      83  74  73 SW8       30.10F
NEWPORT NEWS   MOSUNNY   84  73  69 W13       30.12F
LANGLEY AFB    CLOUDY    84  74  72 SW17      30.12F
FORT EUSTIS    MOSUNNY   86  74  66 W7        30.10F
WILLIAMSBURG*  CLOUDY    88  73  62 W7        30.13F HX  96
HR EXEC AP*    FAIR      86  72  62 W8G18     30.11F
FRANKLIN*      CLOUDY    83  72  68 W9        30.15F
US460-WAKEFLD  MOSUNNY   85  73  67 W9        30.13F
$$

VAZ020-022-025-037-045-291800-
WEST CENTRAL AND SOUTHWEST VIRGINIA

CITY           SKY/WX    TMP DP  RH WIND       PRES   REMARKS
STAUNTON*      CLOUDY    83  63  49 S7        30.15F
WAYNESBORO*    CLOUDY    83  66  56 SW6       30.15F
HOT SPRINGS VA CLOUDY    77  48  36 W10       30.28F
LYNCHBURG      SUNNY     84  69  60 SW9       30.17S
DANVILLE       CLOUDY    80  72  76 VRB6      30.17F
SOUTH BOSTON*  PTSUNNY   82  72  71 S10G16    30.17F
MARTINSVILLE   CLOUDY    78  68  70 SW5       30.21S
ROANOKE        MOSUNNY   84  69  60 E6        30.16F
BLACKSBURG     MOSUNNY   83  61  48 SW7       30.22F
DUBLIN*        SUNNY     83  54  36 S8        30.20F
MARION*        SUNNY     84  60  43 CALM      30.22F
HILLSVILLE*    CLOUDY    77  67  70 S8        30.23F
RICHLANDS*     FAIR      82  55  39 SW9G17    30.20F
WISE*          CLOUDY    81  54  39 S15G24    30.21S
ABINGDON*      CLOUDY    85  61  43 W9        30.18F
$$

MDZ021>025-VAZ099-100-291800-
SOUTHERN MARYLAND AND THE DELMARVA PENINSULA

CITY           SKY/WX    TMP DP  RH WIND       PRES   REMARKS
PATUXENT RIVER NOT AVBL
BAY BRIDGE APT PTSUNNY   86  64  48 SW13      30.04F
LEONARDTOWN    SUNNY     82  68  61 W8        30.09F
DOVER          CLOUDY    84  82  95 SW16      30.00F HX 100
GEORGETOWN     MOSUNNY   88  62  41 SW10G21   30.05F
EASTON           N/A     84  66  54 SW14      30.08F
CAMBRIDGE      SUNNY     86  66  51 SW8       30.06F
SALISBURY      PTSUNNY   83  72  69 SW14      30.07F
OCEAN CITY     CLOUDY    84  70  62 W9G17     30.07F
WALLOPS ISLAND CLOUDY    82  74  76 W13       30.09F
ACCOMACK*      MOSUNNY   82  72  72 W15       30.12F
$$

NCZ012>017-030>032-291800-
NORTH CENTRAL AND EASTERN NORTH CAROLINA

CITY           SKY/WX    TMP DP  RH WIND       PRES   REMARKS
ROANOKE RAPIDS PTSUNNY   82  72  69 SW13      30.17S
RALEIGH        PTSUNNY   85  70  60 SW12      30.18F
ELIZABETH CITY LGT RAIN  85  74  69 SW13G22   30.16F
AHOSKIE*         N/A     84  72  67 CALM      30.16F
EDENTON*       SUNNY     86  71  60 W8        30.18S
CURRITUCK*     PTSUNNY   86  71  61 SW12G17   30.16S
KILL DEVIL HLS SUNNY     85  68  56 SW5       30.16S
MANTEO         SUNNY     83  69  61 W9        30.17F
CAPE HATTERAS  SUNNY     80  72  76 SW13G21   30.21F HAZE
TARBORO*       NOT AVBL
GOLDSBORO      MOSUNNY   85  73  67 S9        30.18F
WASHINGTON     SUNNY     85  70  61 SW12      30.19F
GREENVILLE     MOSUNNY   86  70  58 SW13      30.19F
NEW BERN       MOSUNNY   86  72  62 SW14      30.20F
WILMINGTON     MOSUNNY   84  70  62 SW14      30.21F
$$

VAZ048-291800-
ELSEWHERE

CITY           SKY/WX    TMP DP  RH WIND       PRES   REMARKS
HARRISBURG PA  CLOUDY    76  66  71 NW6       30.03R
BALTIMORE      PTSUNNY   85  64  49 SW15G21   30.03F
ANNAPOLIS      PTSUNNY   86  65  49 VRB6      30.03F
ANDREWS AFB    SUNNY     86  65  49 S15       30.05F
PHILADELPHIA   CLOUDY    81  62  52 SW14      29.98F
HENDERSON NC   PTSUNNY   78  68  71 SW6       30.19S
GREENSBORO     CLOUDY    80  72  76 SW9G16    30.18F
ROCKY MOUNT    MOSUNNY   84  71  65 S13G18    30.18F
$$

VAZ100-291800-
MARINE

STATION/POSITION TIME  TEMP    WIND        PRES    WAVE   SWELL
                       AIR SEA DIR/SP/G            HT/PER HT/PER
                 (UTC) (F)     (DEG/KT/KT) (MB)    (FT/S) (FT/S)
CAPE MAY NJ      1648   73 60  230/  8/ 10 1016.9F
LEWES DE         1648   84 59  270/ 14/ 20 1017.2F
15NM E FENWICK I 1650   61 55  200/ 12/ 14 1018.5F   4/ 6   2/ 7
OCEAN-CITY-INLET 1648   81 55  290/ 12/ 16 1018.6F
WACHAPREAGUE VA  1648   81 71  230/  6/ 11 1019.4F
THOMAS POINT MD  1700   70 62  180/ 13/ 14   N/A
GOOSES REEF MD   1700   73 59  210/  8/ 10 1018.5    0
COVE POINT MD    1648   82     260/ 10/ 13 1018.8F
SOLOMONS ISLAND  1648   80 62  230/  8/ 11   N/A
BISHOPS HEAD MD  1648   77 74  210/ 10/ 11 1019.1F
PINEY POINT MD   1648          240/  6/  7   N/A
POTOMAC MD       1700   73 65  180/  6/  6 1017.9    1
CAMBRIDGE MD     1636   87 67                N/A
LEWISETTA VA     1648   82 71  230/  5/  7 1018.5F
RAPPAHANNOCK LGT 1648          200/  6/  7 1020.6F
STINGRAY PT      1700   75 64  250/  8/ 10 1019.8    1
YORK RVR RNG VA  1648   76     270/ 15/ 16 1019.2F
YORKTOWN VA      1648   81 66  250/  8/ 15 1019.5F
JAMESTOWN VA     1700   80 72  230/  8/ 10   N/A     0
DOMINION TERM VA 1648   77     250/  8/ 10 1020.4F
KIPTOPEKE VA     1648      65  260/ 10/ 11   N/A
CHES BAY BRIDGE  1648   77 64  270/ 14/ 16 1019.9F
CAPE HENRY VA    1648   84     230/ 11/ 15   N/A
WILLOUBY STN VA  1648   78     240/ 12/ 12 1021.1F
S CRANEY ISL VA  1648   83     250/  7/ 13 1020.1F
CAPE HENRY BUOY  1642      64                N/A     3/ 8
1ST LANDING BUOY 1700   74 65              1020.2    1/ 4
CAPE CHARLES BUO 1651      61                N/A     3/ 8
64NM E OF VA BCH 1650   62 58  210/ 12/ 14 1021.7F   3/ 8   3/ 8
DUCK PIER NC     1648   81 56  250/ 10/ 13 1021.3R
44100 DUCK FRF   1605      61                N/A     3/ 6
44056 DUCK FRF   1700      59                N/A     2/ 8
OREGON INLET NC  1636   76 76  190/ 17/ 20 1021.9F
HATTERAS NC      1648   77 72  200/ 10/ 15 1022.8F
DIAMOND SHLS NC  1650   77 76  230/ 14/ 17 1023.3F   3/ 7   2/ 7
CAPE LOOKOUT NC  1700   77     210/ 14/ 17 1023.1F
$$



USA.gov is the U.S. government's official web portal to all federal, state and local government web resources and services.